Location: Chefe Valiua
(16.5342°S, 37.2214°E)
Time: 11:52:26
(UTC+00:00)

X-37B - Visible Passes

Search period start: 22 June 2021 00:00
Search period end: 02 July 2021 00:00
Orbit: 386 x 389 km, 45.0° (Epoch: 10 June)

Date Brightness Start Highest point End Pass type
(mag) Time Alt. Az. Time Alt. Az. Time Alt. Az.
24 Jun 3.8 03:14:45 10° N 03:16:53 17° NE 03:19:01 10° E visible
26 Jun 1.7 02:53:36 10° NNW 02:56:40 45° NE 02:59:44 10° ESE visible
27 Jun 3.6 01:58:44 17° ENE 01:58:44 17° ENE 02:00:35 10° E visible
27 Jun 2.0 03:32:21 10° W 03:34:54 21° SW 03:37:27 10° SSE visible
28 Jun 1.5 02:37:27 37° SSE 02:37:27 37° SSE 02:39:39 10° SE visible
